Trieste, Italy

4:16 PM CEST on July 24, 2017 (GMT +0200)
Trieste

Weather History for LIVT - October, 2012

Change the Weather History Date:

Monday, October 29, 2012

  Actual Average Record
Temperature  
Mean Temperature 45 °F -  
Max Temperature 49 °F 54 °F 75 °F (2016)
Min Temperature 41 °F 46 °F 39 °F (1997)
Degree Days  
Heating Degree Days 20    
Moisture  
Dew Point 27 °F    
Average Humidity 50    
Maximum Humidity 57    
Minimum Humidity 31    
Precipitation  
Precipitation 0.00 in 0.15 in - ()
Sea Level Pressure  
Sea Level Pressure 29.77 in    
Wind  
Wind Speed 19 mph ()    
Max Wind Speed 26 mph    
Max Gust Speed 61 mph    
Visibility 9.1 miles    
Events      
Averages and records for this station are not official NWS values.
T = Trace of Precipitation, MM = Missing Value Source: Averaged Metar Reports

Daily Weather History Graph

Daily Weather History Graph

Search for Another Location

Airport or City:

Trip Planner

Search our weather history database for the weather conditions in past years. The results will help you decide how hot, cold, wet, or windy it might be!

Date:

Astronomy

Oct. 29, 2012 Rise Set
Actual Time 6:40 AM CET 4:55 PM CET
Civil Twilight 6:10 AM CET 5:26 PM CET
Nautical Twilight 5:35 AM CET 6:01 PM CET
Astronomical Twilight 5:00 AM CET 6:35 PM CET
Moon 4:36 PM CET (10/29) 6:15 AM CET (10/29)
Length of Visible Light 11h 16m
Length of Day
10h 14m
Full, 100% of the Moon is Illuminated
Oct 29
Full
Oct 29
Full
Nov 7
Last Quarter
Nov 13
New
Nov 20
First Quarter

Hourly Weather History & Observations

Time (CET) Temp. Windchill Dew Point Humidity Pressure Visibility Wind Dir Wind Speed Gust Speed Precip Events Conditions
12:55 AM 44.6 °F 35.7 °F 24.8 °F 46% 29.68 in 6.2 mi ENE 24.2 mph 50.6 mph N/A   Scattered Clouds
1:00 AM 44 °F - 25 °F 35% 29.69 in 12 mi ENE 24.2 mph - -   Partly Cloudy
1:55 AM 42.8 °F 33.5 °F 24.8 °F 49% 29.68 in 6.2 mi ENE 23.0 mph 44.9 mph N/A   Scattered Clouds
2:55 AM 42.8 °F 32.9 °F 26.6 °F 53% 29.68 in 6.2 mi ENE 26.5 mph 61.0 mph N/A   Partly Cloudy
3:55 AM 41.0 °F 30.7 °F 26.6 °F 57% 29.68 in 6.2 mi NE 25.3 mph 47.2 mph N/A   Partly Cloudy
5:55 AM 41.0 °F 30.9 °F 26.6 °F 57% 29.68 in - ENE 24.2 mph 47.2 mph N/A   Clear
6:55 AM 41.0 °F 31.1 °F 26.6 °F 57% 29.71 in - ENE 23.0 mph 44.9 mph N/A   Clear
7:00 AM 41 °F - 27 °F 45% 29.71 in 12 mi ENE 23.0 mph - -   Partly Cloudy
9:55 AM 46.4 °F 38.3 °F 28.4 °F 50% 29.74 in - ENE 23.0 mph 46.0 mph N/A   Clear
11:55 AM 48.2 °F - 28.4 °F 46% 29.74 in - ENE 20.7 mph 40.3 mph N/A   Clear
12:55 PM 48.2 °F - 28.4 °F 46% 29.74 in - ENE 19.6 mph 38.0 mph N/A   Clear
1:00 PM 49 °F - 28 °F 31% 29.76 in 12 mi ENE 19.6 mph - -   Scattered Clouds
1:55 PM 48.2 °F - 28.4 °F 46% 29.77 in - ENE 18.4 mph 40.3 mph N/A   Clear
2:55 PM 48.2 °F - 26.6 °F 43% 29.77 in - ENE 18.4 mph 36.8 mph N/A   Clear
3:55 PM 46.4 °F 40.1 °F 28.4 °F 50% 29.77 in - ENE 15.0 mph 33.4 mph N/A   Clear
4:55 PM 44.6 °F 36.4 °F 28.4 °F 53% 29.80 in - ENE 20.7 mph 36.8 mph N/A   Clear
5:55 PM 42.8 °F 34.8 °F 28.4 °F 57% 29.83 in - ENE 17.3 mph 33.4 mph N/A   Clear
6:55 PM 42.8 °F 34.3 °F 26.6 °F 53% 29.83 in - ENE 19.6 mph 38.0 mph N/A   Clear
7:00 PM 43 °F - 27 °F 41% 29.84 in 12 mi ENE 19.6 mph - -   Partly Cloudy
7:55 PM 42.8 °F 34.3 °F 26.6 °F 53% 29.83 in - ENE 19.6 mph 35.7 mph N/A   Clear
8:55 PM 42.8 °F 34.5 °F 26.6 °F 53% 29.86 in - ENE 18.4 mph 33.4 mph N/A   Clear
9:55 PM 41.0 °F 32.5 °F 26.6 °F 57% 29.89 in - ENE 17.3 mph 34.5 mph N/A   Clear
10:55 PM 41.0 °F 32.8 °F 26.6 °F 57% 29.89 in - ENE 16.1 mph 32.2 mph N/A   Clear
11:55 PM 41.0 °F 32.2 °F 26.6 °F 57% 29.89 in - ENE 18.4 mph - N/A   Clear